CW6538 Cattolica IT current weather conditions

sailwx.info

Wind from 073 at 2 knots gusting 8

Air temperature 22.2° C
Dewpoint 14.8° C

Last reported at 2015-May-06 19:43 UTC.
Time now 2015-May-06 20:34 UTC

Location: N 43°58' E 012°44'.
View on Google Maps.

See reports from other nearby stations

  
Tides and Currents Weather Stations Pressure Air Temp Water Temp Dewpoint Dewpoint Depression Visibility Wind Speed Wind Dir Waves Ship Positions
date/time (UTC)wind fromknots sea level pressurealtimeterstation pressurevisibilityair tempwater tempwave heightnotes
2015-May-06 19:43 073 2 gusting 8 22.2
2015-May-06 19:38 061 3 gusting 8 22.8
2015-May-06 19:34 053 5 gusting 7 23.3
2015-May-06 19:29 032 3 gusting 7 23.3
2015-May-06 19:23 196 23.9
2015-May-06 19:18 196 23.9
2015-May-06 19:13 196 23.9
2015-May-06 19:08 196 23.9
2015-May-06 19:04 196 3 gusting 6 24.4
2015-May-06 18:59 198 4 gusting 6 24.4
2015-May-06 18:54 204 3 gusting 5 24.4
2015-May-06 18:48 196 3 gusting 4 25.0
2015-May-06 18:43 195 25.0
2015-May-06 18:39 195 25.6
2015-May-06 18:33 195 25.6
2015-May-06 18:28 195 25.6
2015-May-06 18:23 195 2 gusting 6 25.6
2015-May-06 18:19 193 3 gusting 7 25.6
2015-May-06 18:14 190 4 gusting 9 25.6
2015-May-06 18:09 203 5 gusting 12 25.6
2015-May-06 18:04 198 6 gusting 12 25.6
2015-May-06 17:59 198 6 gusting 13 25.0
2015-May-06 17:54 186 7 gusting 13 25.0
2015-May-06 17:48 175 6 gusting 12 24.4
2015-May-06 17:44 159 6 gusting 10 23.9
2015-May-06 17:39 180 5 gusting 8 24.4
2015-May-06 17:34 189 5 gusting 8 23.9
2015-May-06 17:28 204 3 gusting 6 23.9
2015-May-06 17:23 190 3 gusting 6 23.9
2015-May-06 17:19 182 4 gusting 6 23.9
2015-May-06 17:13 158 5 gusting 6 23.3
2015-May-06 17:08 162 2 gusting 5 23.3
2015-May-06 17:04 163 4 gusting 5 23.3
2015-May-06 16:59 173 3 gusting 4 23.3
2015-May-06 16:53 165 2 gusting 4 23.3
2015-May-06 16:49 145 2 gusting 4 23.3
2015-May-06 16:44 139 22.8
2015-May-06 16:39 139 22.8
2015-May-06 16:34 139 22.8
2015-May-06 16:29 139 22.8
2015-May-06 16:24 139 0 gusting 5 22.8
2015-May-06 16:18 159 2 gusting 5 22.8
2015-May-06 16:13 115 0 gusting 4 22.2
2015-May-06 16:08 061 22.2
2015-May-06 16:04 056 0 gusting 6 22.2
2015-May-06 15:59 043 5 gusting 6 22.2
2015-May-06 15:53 180 22.2
2015-May-06 15:48 055 22.2
2015-May-06 15:44 050 3 gusting 6 21.7
2015-May-06 15:34 144 2 gusting 6 21.7
2015-May-06 15:29 169 3 gusting 6 21.1
2015-May-06 15:24 165 4 gusting 6 21.1
2015-May-06 15:19 171 3 gusting 7 20.6
2015-May-06 15:08 181 4 gusting 7 20.0
2015-May-06 15:04 164 2 gusting 5 20.0
2015-May-06 14:58 155 0 gusting 5 19.4
2015-May-06 14:49 073 0 gusting 5 19.4
2015-May-06 14:43 104 1 gusting 5 19.4
2015-May-06 14:38 189 0 gusting 4 18.9
2015-May-06 14:33 130 18.9
2015-May-06 14:28 078 2 gusting 5 18.9
2015-May-06 14:23 039 2 gusting 5 19.4
2015-May-06 14:18 010 3 gusting 5 19.4
2015-May-06 14:14 350 3 gusting 5 18.9
2015-May-06 14:08 020 1 gusting 5 18.9
2015-May-06 14:04 028 2 gusting 6 18.9
2015-May-06 13:53 009 3 gusting 7 18.9
2015-May-06 13:49 065 4 gusting 7 19.4
2015-May-06 13:44 005 5 gusting 11 19.4
2015-May-06 13:38 005 7 gusting 11 20.0
2015-May-06 13:33 016 6 gusting 11 20.0
2015-May-06 13:29 014 6 gusting 11 20.0
2015-May-06 13:23 021 6 gusting 9 20.0
2015-May-06 13:19 036 7 gusting 9 20.0
2015-May-06 13:14 038 7 gusting 9 20.0
2015-May-06 13:09 043 6 gusting 10 20.0
2015-May-06 13:03 011 7 gusting 12 20.0
2015-May-06 12:58 027 8 gusting 13 20.0
2015-May-06 12:53 052 7 gusting 13 20.0
2015-May-06 12:48 037 9 gusting 13 19.4
2015-May-06 12:44 027 10 gusting 13 19.4
2015-May-06 12:38 032 8 gusting 13 20.0
2015-May-06 12:33 013 7 gusting 12 20.0
2015-May-06 12:28 024 6 gusting 12 20.6
2015-May-06 12:24 061 6 gusting 12 20.0
2015-May-06 12:18 044 7 gusting 13 20.0
2015-May-06 12:14 059 7 gusting 13 20.0
2015-May-06 12:09 066 5 gusting 9 20.0
2015-May-06 12:04 026 6 gusting 12 20.0
2015-May-06 11:59 051 7 gusting 11 20.0
2015-May-06 11:53 017 7 gusting 11 20.0
2015-May-06 11:49 026 5 gusting 8 19.4
2015-May-06 11:43 074 6 gusting 8 18.9
2015-May-06 11:38 051 4 gusting 8 19.4
2015-May-06 11:34 009 4 gusting 10 18.9
2015-May-06 11:29 360 6 gusting 11 19.4
2015-May-06 11:24 343 7 gusting 13 19.4
2015-May-06 11:19 355 10 gusting 15 19.4
2015-May-06 11:14 005 10 gusting 18 20.6
2015-May-06 11:08 360 13 gusting 18 21.7
2015-May-06 11:03 340 11 gusting 16 22.2
2015-May-06 10:58 009 9 gusting 16 22.2
2015-May-06 10:53 065 10 gusting 18 22.8
2015-May-06 10:49 053 11 gusting 17 24.4
2015-May-06 10:44 055 6 gusting 10 26.1
2015-May-06 10:38 036 6 gusting 10 26.1
2015-May-06 10:33 028 5 gusting 9 26.1
2015-May-06 10:28 048 6 gusting 9 25.6
2015-May-06 10:24 113 4 gusting 8 25.0
2015-May-06 10:18 140 3 gusting 8 25.0
2015-May-06 10:14 128 5 gusting 7 25.0
2015-May-06 10:08 134 3 gusting 6 24.4
2015-May-06 10:04 161 3 gusting 9 24.4
2015-May-06 09:58 114 6 gusting 10 23.9
2015-May-06 09:53 128 6 gusting 11 23.9
2015-May-06 09:49 124 6 gusting 11 23.9
2015-May-06 09:44 170 6 gusting 10 23.9
2015-May-06 09:38 139 6 gusting 10 23.3
2015-May-06 09:33 141 6 gusting 12 22.8
2015-May-06 09:28 132 6 gusting 12 22.8
2015-May-06 09:23 145 8 gusting 12 22.8
2015-May-06 09:18 173 5 gusting 12 22.2
2015-May-06 09:14 132 7 gusting 12 22.2
2015-May-06 09:09 171 6 gusting 12 22.2
2015-May-06 09:04 132 6 gusting 12 22.2
2015-May-06 08:59 121 5 gusting 9 21.7
2015-May-06 08:54 139 4 gusting 9 21.1
2015-May-06 08:48 217 5 gusting 9 21.1
2015-May-06 08:44 132 5 gusting 9 20.0
2015-May-06 08:39 128 5 gusting 8 20.0
2015-May-06 08:33 169 4 gusting 6 20.0
2015-May-06 08:29 187 4 gusting 6 19.4
2015-May-06 08:23 163 4 gusting 6 19.4
2015-May-06 08:19 084 1 gusting 7 19.4
2015-May-06 08:14 113 3 gusting 10 18.9
2015-May-06 08:09 147 6 gusting 10 18.9
2015-May-06 08:04 105 4 gusting 8 18.9
2015-May-06 07:58 126 6 gusting 8 18.9
2015-May-06 07:53 126 3 gusting 6 18.3
2015-May-06 07:48 011 2 gusting 8 17.8
2015-May-06 07:43 027 4 gusting 8 17.8
2015-May-06 07:38 061 3 gusting 8 17.2
2015-May-06 07:33 042 6 gusting 8 17.2
2015-May-06 07:28 017 5 gusting 9 17.2
2015-May-06 07:23 051 6 gusting 9 16.7
2015-May-06 07:18 074 2 gusting 6 16.7
2015-May-06 07:13 054 4 gusting 8 16.7
2015-May-06 07:08 024 1 gusting 8 16.7
2015-May-06 07:04 055 1 gusting 7 16.7
2015-May-06 06:58 025 4 gusting 6 16.7
2015-May-06 06:54 157 0 gusting 4 16.7
2015-May-06 06:49 159 0 gusting 5 16.7
2015-May-06 06:43 169 1 gusting 5 16.7
2015-May-06 06:38 114 0 gusting 2 16.1
2015-May-06 06:33 113 16.1
2015-May-06 06:28 113 16.1
2015-May-06 06:24 113 1 gusting 4 16.1
2015-May-06 06:18 212 16.1
2015-May-06 06:13 213 16.1
2015-May-06 06:09 171 16.1
2015-May-06 06:03 298 16.1
2015-May-06 05:59 298 15.6
2015-May-06 05:53 298 15.6
2015-May-06 05:49 298 15.6
2015-May-06 05:43 298 15.6
2015-May-06 05:38 298 15.6
2015-May-06 05:34 298 15.6
2015-May-06 05:28 298 15.0
2015-May-06 05:23 298 15.0
2015-May-06 05:18 298 15.0
2015-May-06 05:13 298 0 gusting 3 15.0
2015-May-06 05:08 184 0 gusting 3 15.0
2015-May-06 05:03 185 15.0
2015-May-06 04:58 184 0 gusting 4 15.0
2015-May-06 04:53 185 14.4
2015-May-06 04:49 185 14.4
2015-May-06 04:43 185 14.4
2015-May-06 04:39 185 14.4
2015-May-06 04:34 184 14.4
2015-May-06 04:28 185 14.4
2015-May-06 04:23 184 0 gusting 1 14.4
2015-May-06 04:18 185 14.4
2015-May-06 04:13 184 0 gusting 4 14.4
2015-May-06 04:08 185 2 gusting 4 14.4
2015-May-06 04:04 185 0 gusting 3 14.4
2015-May-06 03:58 185 0 gusting 3 14.4
2015-May-06 03:53 184 1 gusting 3 14.4
2015-May-06 03:49 184 14.4
2015-May-06 03:43 184 14.4
2015-May-06 03:38 184 0 gusting 3 14.4
2015-May-06 03:33 185 0 gusting 4 14.4
2015-May-06 03:23 185 1 gusting 1 14.4
2015-May-06 03:18 184 14.4
2015-May-06 03:14 185 14.4
2015-May-06 03:09 184 1 gusting 3 14.4
2015-May-06 03:03 184 14.4
2015-May-06 02:59 184 14.4
2015-May-06 02:53 185 1 gusting 3 14.4
2015-May-06 02:48 185 0 gusting 3 15.0
2015-May-06 02:39 185 0 gusting 3 15.0
2015-May-06 02:33 185 0 gusting 1 15.0
2015-May-06 02:28 184 15.0
2015-May-06 02:24 185 15.0
2015-May-06 02:19 184 0 gusting 3 15.0
2015-May-06 02:14 184 15.0
2015-May-06 02:04 184 1 gusting 4 15.0
2015-May-06 01:58 184 1 gusting 4 15.0
2015-May-06 01:54 185 15.0
2015-May-06 01:48 184 2 gusting 3 15.6
2015-May-06 01:43 184 0 gusting 4 15.6
2015-May-06 01:38 184 15.6
2015-May-06 01:34 185 15.6
2015-May-06 01:28 185 15.6
2015-May-06 01:23 184 15.6
2015-May-06 01:19 185 1 gusting 2 15.6
2015-May-06 01:14 184 15.6
2015-May-06 01:09 185 15.6
2015-May-06 01:04 184 0 gusting 3 15.6
2015-May-06 00:59 185 15.6
2015-May-06 00:54 184 15.6
2015-May-06 00:48 184 15.6
2015-May-06 00:43 185 15.6
2015-May-06 00:38 185 0 gusting 4 15.6
2015-May-06 00:34 184 0 gusting 4 15.6
2015-May-06 00:29 185 0 gusting 4 15.6
2015-May-06 00:23 185 2 gusting 4 15.6
2015-May-06 00:19 185 15.6
2015-May-06 00:14 185 1 gusting 4 16.1
2015-May-06 00:08 185 0 gusting 4 16.1
2015-May-06 00:04 191 2 gusting 4 16.1
2015-May-05 23:58 171 16.1
2015-May-05 23:54 178 2 gusting 4 16.1
2015-May-05 23:49 177 0 gusting 2 16.1
2015-May-05 23:43 178 16.1
2015-May-05 23:38 178 16.1
2015-May-05 23:34 178 16.1
2015-May-05 23:29 178 16.1
2015-May-05 23:23 177 16.1
2015-May-05 23:19 177 16.1
2015-May-05 23:14 178 16.1
2015-May-05 23:08 178 0 gusting 1 16.1
2015-May-05 23:04 178 16.1
2015-May-05 22:59 178 0 gusting 3 16.1
2015-May-05 22:54 178 16.1
2015-May-05 22:49 178 2 gusting 4 16.1
2015-May-05 22:43 174 1 gusting 4 16.1
2015-May-05 22:38 173 1 gusting 4 16.1
2015-May-05 22:34 161 2 gusting 4 16.1
2015-May-05 22:29 347 16.1
2015-May-05 22:23 347 16.1
2015-May-05 22:19 347 16.1
2015-May-05 22:13 347 16.1
2015-May-05 22:09 347 16.1
2015-May-05 22:04 347 16.1
2015-May-05 21:59 347 16.1
2015-May-05 21:54 347 16.1
2015-May-05 21:49 347 1 gusting 3 16.7
2015-May-05 21:44 347 0 gusting 3 16.7
2015-May-05 21:34 347 0 gusting 4 16.7
2015-May-05 21:23 347 16.7
2015-May-05 21:18 347 0 gusting 4 16.7
2015-May-05 21:09 063 1 gusting 3 16.7
2015-May-05 20:59 063 16.7
2015-May-05 20:53 063 16.7
2015-May-05 20:49 063 16.7
2015-May-05 20:44 063 2 gusting 4 16.7
2015-May-05 20:38 171 16.7
2015-May-05 20:34 171 16.7
2015-May-05 20:29 171 16.7
2015-May-05 20:24 171 0 gusting 4 16.7
2015-May-05 20:19 141 3 gusting 4 16.7
2015-May-05 20:14 118 16.7
2015-May-05 20:09 118 16.7
2015-May-05 20:04 108 16.7
2015-May-05 19:59 360 16.7
2015-May-05 19:54 360 16.7
2015-May-05 19:48 360 16.7
2015-May-05 19:44 360 16.7
2015-May-05 19:38 360 16.7
2015-May-05 19:34 360 16.7
2015-May-05 19:28 360 16.7
2015-May-05 19:23 360 16.7
2015-May-05 19:19 360 16.7
2015-May-05 19:14 360 16.7
2015-May-05 19:09 360 16.7
2015-May-05 19:03 360 16.7
2015-May-05 18:58 360 0 gusting 5 16.7
2015-May-05 18:53 013 2 gusting 4 16.7
2015-May-05 18:48 014 3 gusting 4 16.7
2015-May-05 18:44 014 0 gusting 3 16.7
2015-May-05 18:39 013 17.2
2015-May-05 18:33 014 1 gusting 2 17.2
2015-May-05 18:28 013 17.2
2015-May-05 18:23 014 1 gusting 4 17.2
2015-May-05 18:18 014 17.2
2015-May-05 18:14 014 17.2
2015-May-05 18:08 014 1 gusting 4 17.2
2015-May-05 18:03 014 2 gusting 5 17.2
2015-May-05 17:58 029 2 gusting 6 17.2
2015-May-05 17:53 350 4 gusting 6 17.2
2015-May-05 17:48 026 3 gusting 5 17.8
2015-May-05 17:44 005 3 gusting 5 17.8
2015-May-05 17:38 011 4 gusting 6 17.8
2015-May-05 17:34 355 4 gusting 6 17.8
2015-May-05 17:29 028 4 gusting 6 17.8
2015-May-05 17:24 024 3 gusting 5 17.8
2015-May-05 17:18 009 1 gusting 5 17.8
2015-May-05 17:13 032 3 gusting 5 18.3
2015-May-05 17:08 020 3 gusting 6 18.3
2015-May-05 17:04 031 3 gusting 6 18.3
2015-May-05 16:54 014 4 gusting 6 17.8
2015-May-05 16:49 015 3 gusting 6 17.8
2015-May-05 16:44 015 4 gusting 6 17.8
2015-May-05 16:38 048 3 gusting 6 18.3
2015-May-05 16:33 071 4 gusting 6 18.3
2015-May-05 16:19 020 5 gusting 8 18.3
2015-May-05 16:14 005 5 gusting 7 18.3
2015-May-05 16:09 044 5 gusting 9 18.9
2015-May-05 16:04 058 5 gusting 9 18.3
2015-May-05 15:59 032 6 gusting 8 18.3
2015-May-05 15:53 059 6 gusting 8 18.9
2015-May-05 15:48 005 6 gusting 9 18.9
2015-May-05 15:44 017 6 gusting 9 18.9
2015-May-05 15:39 022 6 gusting 10 18.9
2015-May-05 15:33 039 6 gusting 10 18.9
2015-May-05 15:28 043 6 gusting 10 18.9
2015-May-05 15:23 050 7 gusting 9 18.9
2015-May-05 15:19 034 6 gusting 8 19.4
2015-May-05 15:09 036 4 gusting 9 19.4
2015-May-05 15:03 090 6 gusting 10 19.4
2015-May-05 14:59 032 6 gusting 11 19.4
2015-May-05 14:54 049 7 gusting 11 19.4
2015-May-05 14:48 040 7 gusting 10 19.4
2015-May-05 14:44 050 6 gusting 9 19.4
2015-May-05 14:38 046 4 gusting 10 19.4
2015-May-05 14:34 049 6 gusting 10 19.4
2015-May-05 14:28 012 6 gusting 9 20.0
2015-May-05 14:23 065 6 gusting 9 20.0
2015-May-05 14:18 036 6 gusting 9 20.0
2015-May-05 14:13 053 6 gusting 8 19.4
2015-May-05 14:08 040 6 gusting 8 18.9
2015-May-05 14:03 048 5 gusting 7 18.9
2015-May-05 13:59 034 6 gusting 9 18.9
2015-May-05 13:53 051 5 gusting 9 18.3
2015-May-05 13:48 081 4 gusting 9 18.3
2015-May-05 13:43 061 6 gusting 9 18.3
2015-May-05 13:38 036 6 gusting 9 18.3
2015-May-05 13:33 075 5 gusting 9 18.9
2015-May-05 13:28 030 6 gusting 10 18.3
2015-May-05 13:24 069 6 gusting 10 18.3
2015-May-05 13:19 023 6 gusting 10 18.3
2015-May-05 13:13 076 6 gusting 11 18.3
2015-May-05 13:08 046 6 gusting 11 18.9
2015-May-05 13:03 072 6 gusting 12 18.9
2015-May-05 12:58 028 7 gusting 12 18.3
2015-May-05 12:53 005 8 gusting 11 18.3
2015-May-05 12:49 049 6 gusting 10 18.9
2015-May-05 12:43 044 7 gusting 11 18.9
2015-May-05 12:38 005 6 gusting 11 18.9
2015-May-05 12:33 076 6 gusting 10 18.9
2015-May-05 12:29 019 6 gusting 10 18.3
2015-May-05 12:23 036 6 gusting 13 18.3
2015-May-05 12:18 030 6 gusting 12 18.9
2015-May-05 12:14 009 8 gusting 13 18.9
2015-May-05 12:09 028 8 gusting 13 18.9
2015-May-05 12:03 026 9 gusting 15 18.9
2015-May-05 11:58 015 8 gusting 13 19.4
2015-May-05 11:53 101 7 gusting 16 19.4
2015-May-05 11:48 056 9 gusting 16 19.4
2015-May-05 11:44 062 9 gusting 16 19.4
2015-May-05 11:39 044 10 gusting 16 20.0
2015-May-05 11:34 044 9 gusting 13 19.4
2015-May-05 11:29 057 9 gusting 13 20.0
2015-May-05 11:24 019 8 gusting 12 20.0
2015-May-05 11:18 059 6 gusting 12 20.0
2015-May-05 11:13 022 6 gusting 12 20.0
2015-May-05 11:09 019 6 gusting 11 20.0
2015-May-05 11:03 034 5 gusting 9 19.4
2015-May-05 10:58 042 6 gusting 10 19.4
2015-May-05 10:53 028 6 gusting 10 20.0
2015-May-05 10:48 043 6 gusting 9 20.0
2015-May-05 10:43 045 6 gusting 9 20.0
2015-May-05 10:38 011 6 gusting 9 20.0
2015-May-05 10:33 039 6 gusting 8 20.0
2015-May-05 10:24 340 5 gusting 8 20.0
2015-May-05 10:19 034 5 gusting 7 20.0
2015-May-05 10:13 047 6 gusting 8 20.0
2015-May-05 10:09 351 5 gusting 8 19.4
2015-May-05 10:04 026 6 gusting 8 19.4
2015-May-05 09:58 048 6 gusting 9 19.4
2015-May-05 09:54 028 6 gusting 9 20.0
2015-May-05 09:48 040 4 gusting 6 20.0
2015-May-05 09:43 005 3 gusting 6 19.4
2015-May-05 09:38 047 5 gusting 8 18.9
2015-May-05 09:33 053 4 gusting 8 19.4
2015-May-05 09:28 045 3 gusting 8 19.4
2015-May-05 09:23 042 5 gusting 8 18.9
2015-May-05 09:19 346 6 gusting 9 18.9
2015-May-05 09:14 032 5 gusting 10 18.9
2015-May-05 09:08 041 7 gusting 10 19.4
2015-May-05 09:03 051 6 gusting 8 18.9
2015-May-05 08:59 031 6 gusting 8 18.9
2015-May-05 08:53 040 5 gusting 7 18.9
2015-May-05 08:48 011 4 gusting 9 18.9
2015-May-05 08:43 026 6 gusting 9 18.3
2015-May-05 08:38 016 4 gusting 7 18.3
2015-May-05 08:33 031 5 gusting 7 18.3
2015-May-05 08:29 021 4 gusting 7 18.3
2015-May-05 08:23 038 6 gusting 7 18.3
2015-May-05 08:19 015 6 gusting 7 18.3
2015-May-05 08:14 024 4 gusting 7 18.3
2015-May-05 08:08 360 3 gusting 7 18.3
2015-May-05 08:03 032 4 gusting 7 18.3
2015-May-05 07:58 041 4 gusting 6 18.3
2015-May-05 07:53 016 4 gusting 6 17.8
2015-May-05 07:48 017 5 gusting 6 18.3
2015-May-05 07:44 005 5 gusting 6 18.3
2015-May-05 07:39 355 4 gusting 5 18.3
2015-May-05 07:33 031 2 gusting 5 18.3
2015-May-05 07:28 011 2 gusting 5 18.3
2015-May-05 07:23 063 2 gusting 4 17.8
2015-May-05 07:19 018 2 gusting 4 17.2
2015-May-05 07:14 017 3 gusting 5 17.2
2015-May-05 07:08 355 3 gusting 5 17.2
2015-May-05 07:04 027 3 gusting 5 16.7
2015-May-05 06:59 355 1 gusting 4 16.7
2015-May-05 06:53 355 2 gusting 5 16.7
2015-May-05 06:48 360 1 gusting 5 16.7
2015-May-05 06:44 340 2 gusting 5 16.7
2015-May-05 06:38 350 3 gusting 5 16.7
2015-May-05 06:33 010 16.7
2015-May-05 06:28 355 2 gusting 5 16.7
2015-May-05 06:24 338 1 gusting 4 16.7
2015-May-05 06:19 316 1 gusting 4 16.7
2015-May-05 06:13 360 0 gusting 4 16.7
2015-May-05 06:08 304 1 gusting 3 16.7
2015-May-05 06:04 250 16.7
2015-May-05 05:59 292 16.1
2015-May-05 05:53 292 0 gusting 4 16.1
2015-May-05 05:48 225 2 gusting 4 16.1
2015-May-05 05:43 282 1 gusting 4 16.1
2015-May-05 05:38 282 1 gusting 4 16.1
2015-May-05 05:34 282 16.1
2015-May-05 05:28 282 1 gusting 4 16.1
2015-May-05 05:23 264 0 gusting 3 16.1
2015-May-05 05:18 264 16.1
2015-May-05 05:14 259 2 gusting 4 16.1
2015-May-05 05:08 282 16.1
2015-May-05 05:04 283 0 gusting 4 16.1
2015-May-05 04:59 282 16.1
2015-May-05 04:53 282 0 gusting 5 16.1
2015-May-05 04:48 282 0 gusting 6 16.1
2015-May-05 04:43 294 2 gusting 6 16.1
2015-May-05 04:39 337 4 gusting 6 16.1
2015-May-05 04:33 338 2 gusting 6 16.1
2015-May-05 04:28 291 16.1
2015-May-05 04:24 291 0 gusting 4 16.1
2015-May-05 04:18 329 16.1
2015-May-05 04:13 296 16.1
2015-May-05 04:09 292 1 gusting 5 16.1
2015-May-05 04:04 281 3 gusting 5 16.1
2015-May-05 03:58 332 16.1
2015-May-05 03:53 332 1 gusting 4 16.1
2015-May-05 03:49 333 1 gusting 4 16.1
2015-May-05 03:44 327 0 gusting 3 16.1
2015-May-05 03:39 334 16.1
2015-May-05 03:33 334 16.1
2015-May-05 03:28 334 0 gusting 4 16.1
2015-May-05 03:23 349 2 gusting 4 16.1
2015-May-05 03:18 288 16.1
2015-May-05 03:14 288 16.1
2015-May-05 03:08 270 16.1
2015-May-05 03:03 265 2 gusting 2 16.1
2015-May-05 02:58 249 16.1
2015-May-05 02:53 250 16.1
2015-May-05 02:48 249 16.1
2015-May-05 02:43 249 16.1
2015-May-05 02:38 250 16.1
2015-May-05 02:34 250 16.1
2015-May-05 02:28 249 16.1
2015-May-05 02:24 249 16.1
2015-May-05 02:18 249 16.1
2015-May-05 02:14 250 16.1
2015-May-05 02:09 249 16.1
2015-May-05 02:03 250 16.1
2015-May-05 01:59 249 16.1
2015-May-05 01:53 250 16.1
2015-May-05 01:48 250 16.1
2015-May-05 01:43 249 16.1
2015-May-05 01:38 249 16.1
2015-May-05 01:33 249 2 gusting 4 16.1
2015-May-05 01:28 257 1 gusting 4 16.7
2015-May-05 01:24 261 16.7
2015-May-05 01:19 261 16.1
2015-May-05 01:13 261 16.1
2015-May-05 01:08 229 2 gusting 4 16.7
2015-May-05 01:03 278 1 gusting 4 16.7
2015-May-05 00:58 278 16.7
2015-May-05 00:54 278 0 gusting 3 16.7
2015-May-05 00:48 278 16.7
2015-May-05 00:44 278 16.7
2015-May-05 00:39 278 1 gusting 4 16.7
2015-May-05 00:34 278 16.7
2015-May-05 00:28 278 3 gusting 5 16.7
2015-May-05 00:23 261 1 gusting 6 16.7
2015-May-05 00:19 271 1 gusting 6 16.7
2015-May-05 00:14 264 2 gusting 6 16.7
2015-May-05 00:09 271 4 gusting 6 16.7
2015-May-05 00:04 336 0 gusting 5 16.7
2015-May-04 23:58 281 2 gusting 5 16.7
2015-May-04 23:54 273 3 gusting 7 16.7
2015-May-04 23:48 284 4 gusting 7 16.7
2015-May-04 23:44 283 4 gusting 7 16.7
2015-May-04 23:38 244 3 gusting 6 16.7
2015-May-04 23:33 268 3 gusting 5 16.7
2015-May-04 23:28 264 0 gusting 4 16.7
2015-May-04 23:24 264 0 gusting 4 16.7
2015-May-04 23:18 270 16.7
2015-May-04 23:14 259 0 gusting 4 16.7
2015-May-04 23:08 259 16.7
2015-May-04 23:03 250 1 gusting 5 16.7
2015-May-04 22:58 257 1 gusting 5 16.7
2015-May-04 22:54 259 17.2
2015-May-04 22:48 258 17.2
2015-May-04 22:43 258 17.2
2015-May-04 22:38 259 17.2
2015-May-04 22:34 262 1 gusting 6 17.2
2015-May-04 22:28 265 2 gusting 6 17.2
2015-May-04 22:23 267 1 gusting 5 17.2
2015-May-04 22:18 301 1 gusting 4 17.2
2015-May-04 22:14 301 0 gusting 3 17.2
2015-May-04 22:08 302 1 gusting 3 17.2
2015-May-04 22:04 277 0 gusting 3 17.2
2015-May-04 21:58 271 0 gusting 3 17.2
2015-May-04 21:53 272 17.2
2015-May-04 21:48 272 0 gusting 5 17.2
2015-May-04 21:44 271 2 gusting 6 17.2
2015-May-04 21:38 273 3 gusting 6 17.2
2015-May-04 21:33 267 3 gusting 5 17.2
2015-May-04 21:28 261 0 gusting 5 17.2
2015-May-04 21:23 249 2 gusting 4 17.2
2015-May-04 21:19 249 2 gusting 4 17.2
2015-May-04 21:14 250 1 gusting 2 17.2
2015-May-04 21:08 250 0 gusting 3 17.2
2015-May-04 21:04 250 17.2
2015-May-04 20:59 250 17.2
2015-May-04 20:53 250 2 gusting 4 17.2
2015-May-04 20:48 298 17.2
2015-May-04 20:43 298 1 gusting 5 17.2
2015-May-04 20:38 293 3 gusting 5 17.2
2015-May-04 20:34 314 17.2
2015-May-04 20:28 314 2 gusting 5 17.2
2015-May-04 20:24 340 0 gusting 4 17.2
2015-May-04 20:18 326 1 gusting 4 17.2
2015-May-04 20:13 329 1 gusting 3 17.2
2015-May-04 20:08 329 0 gusting 4 17.2
2015-May-04 20:04 329 1 gusting 4 17.2